Simultaneous Nadir Overpasses (SNOs) Predictions

Prediction of SNOs between METOP-B and TERRA Satellite Orbit:

Table of predicted SNOs for the next 14.0 days since TLE Epoch: 11/9/2015
Index Date (METOP-B) Time (METOP-B) Lat,Lon (METOP-B) SZA (METOP-B ) Date (TERRA) Time (TERRA) Lat,Lon (TERRA) SZA (TERRA ) Distance(km) Time Diff (sec)
1 11/11/2015 08:38:42 -81.33, -81.95 78.15 11/11/2015 08:38:48 -81.32, -81.89 78.14 1.31 6
2 11/11/2015 09:29:22 81.34, 85.74 101.91 11/11/2015 09:28:14 81.33, 85.86 101.89 2.02 68
3 11/14/2015 03:22:39 81.18, 170.34 101.74 11/14/2015 03:23:52 80.97, 171.20 101.71 28.13 73
4 11/14/2015 04:13:02 -81.33, -15.46 77.40 11/14/2015 04:13:03 -81.33, -15.32 77.38 2.36 1
5 11/14/2015 05:03:41 81.34, 152.59 102.71 11/14/2015 05:02:29 81.34, 152.40 102.64 3.32 72
6 11/
